Location: Chillicothe
(39.7950°N, 93.5520°W)
Time: 13:47:39
(UTC-06:00)

Explorer 11/Cluster Stage 4 - Pass Details

Date: 29 October 2019
Orbit: 467 x 1259 km, 28.8° (Epoch: 20 November)

Event Time Altitude Azimuth Distance (km) Brightness Sun altitude
Rises 08:52:09 0° 250° (WSW) 2,971 9.2 12.0°
Reaches altitude 10° 08:55:23 10° 230° (SW) 1,912 8.4 12.5°
Maximum altitude 08:58:10 17° 190° (S) 1,428 8.3 13.0°
Drops below altitude 10° 09:00:42 10° 149° (SSE) 1,717 9.6 13.4°
Sets 09:03:24 0° 128° (SE) 2,530 11.1 13.9°
